Location: Huntsville
(41.2590°N, 111.7678°W)
Time: 22:43:57
(UTC+00:00)

SR - Pass Details

Date: 18 June 2021
Orbit: 577 x 878 km, 66.7° (Epoch: 28 July)

Event Time Altitude Azimuth Distance (km) Brightness Sun altitude
Rises 10:15:18 0° 319° (NW) 3,245 ? -14.6°
Reaches altitude 10° 10:18:08 10° 307° (NW) 2,258 ? -14.3°
Maximum altitude 10:22:16 25° 253° (WSW) 1,398 ? -13.8°
Enters shadow 10:23:57 21° 222° (SW) 1,535 ? -13.6°
